sat.trackr.live / text

‹ back to catalog

STARLINK-4085

NORAD 53262 · 2022-086W

PAYLOAD ACTIVE UNKNOWN

§ Identity

Operator
Country
US
Launch date
2022-07-24
Launch site
AFETR
Launch vehicle
Mass (kg)
RCS (m²)

Purposes: comms

External: N2YO · Heavens-Above · Gunter

§ Orbital elements

Epoch: 2026-05-25T04:24:39.298752Z

Period
95.44 min
Inclination
53.2134°
Eccentricity
0.0001239
Mean motion
15.08836867 rev/d
Perigee alt
538.9 km
Apogee alt
540.6 km
Semi-major
6,917.9 km
B*
1.1291e-5
RAAN
210.7262°
Arg perigee
84.6539°
Mean anomaly
275.4594°
Rev number
21,261

§ Raw data

STARLINK-40851 53262U 22086W   26145.18378818 -.00000108  00000+0  11291-4 0  99952 53262  53.2134 210.7262 0001239  84.6539 275.4594 15.08836867212618

JSON: /api/v1/satellites/53262 · /tle

For live sub-satellite position, see the globe view (requires WebGL).

§ Visibility from observer

Set your observer location to see the next 7 days of passes ≥ 10°. The values pass through the URL so the page stays shareable.

No JS? Fill the form by hand. The geolocation button needs JavaScript.